GW0360 Weather Reports


Display with metric or nautical units.
time (UTC)temp
F
wind
direction
speed
MPH
gust
MPH
rain 1hr
in
rain 24hr
in
rain mn
in
humidity
%
barometer
mb
20260510031556 68 0 0.0 0.0 0.00 0.00 0.00 50 1012.9
20260510031040 68 0 0.0 0.0 0.00 0.00 0.00 50 1012.8
20260510030543 68 0 0.0 1.0 0.00 0.00 0.00 51 1012.8
20260510030053 68 0 0.0 1.0 0.00 0.00 0.00 49 1012.8
20260510025540 68 0 0.0 1.0 0.00 0.00 0.00 49 1012.8
20260510025045 69 0 0.0 0.0 0.00 0.00 0.00 50 1012.4
20260510024558 69 0 0.0 2.0 0.00 0.00 0.00 48 1012.3
20260510024048 70 0 0.0 2.0 0.00 0.00 0.00 48 1012.2
20260510023541 70 59 0.0 2.0 0.00 0.00 0.00 47 1012.1
20260510023050 70 0 0.0 5.0 0.00 0.00 0.00 47 1011.9
20260510022546 70 0 0.0 5.0 0.00 0.00 0.00 47 1011.9
20260510022041 70 38 0.0 4.0 0.00 0.00 0.00 48 1011.9
20260510021550 70 0 0.0 4.0 0.00 0.00 0.00 46 1011.9
20260510021041 70 0 0.0 4.0 0.00 0.00 0.00 46 1011.6
20260510020541 71 0 0.0 3.0 0.00 0.00 0.00 46 1011.7
20260510020054 71 44 0.0 3.0 0.00 0.00 0.00 45 1011.6
20260510015541 71 0 0.0 5.0 0.00 0.00 0.00 46 1011.5
20260510015040 71 0 0.0 5.0 0.00 0.00 0.00 45 1011.5
20260510014551 71 0 0.0 1.0 0.00 0.00 0.00 45 1011.5
20260510014041 71 0 0.0 4.0 0.00 0.00 0.00 45 1011.4
20260510013541 72 0 0.0 4.0 0.00 0.00 0.00 44 1011.3
20260510013102 72 0 0.0 4.0 0.00 0.00 0.00 44 1011.2
20260510012543 72 29 0.0 4.0 0.00 0.00 0.00 43 1010.9
20260510012041 72 0 0.0 4.0 0.00 0.00 0.00 43 1010.6
20260510011550 73 0 0.0 4.0 0.00 0.00 0.00 44 1010.7
20260510011042 73 0 0.0 4.0 0.00 0.00 0.00 43 1010.7
20260510010541 73 0 0.0 1.0 0.00 0.00 0.00 44 1010.7
20260510005541 73 0 0.0 2.0 0.00 0.00 0.00 44 1010.7
20260510005040 74 0 0.0 2.0 0.00 0.00 0.00 43 1010.6
20260510004558 74 340 0.0 5.0 0.00 0.00 0.00 42 1010.5
20260510004041 74 0 0.0 5.0 0.00 0.00 0.00 43 1010.3
20260510003544 74 0 0.0 1.0 0.00 0.00 0.00 43 1010.3
20260510003055 74 0 0.0 2.0 0.00 0.00 0.00 42 1010.1
20260510002540 75 0 0.0 3.0 0.00 0.00 0.00 41 1010.2
20260510002041 75 0 0.0 3.0 0.00 0.00 0.00 41 1010.1
20260510001552 75 0 0.0 5.0 0.00 0.00 0.00 41 1009.8
20260510001044 76 0 0.0 5.0 0.00 0.00 0.00 42 1009.8
20260510000545 76 0 0.0 6.0 0.00 0.00 0.00 40 1009.7
20260510000108 76 42 0.0 6.0 0.00 0.00 0.00 40 1009.8
20260509235541 76 35 0.0 6.0 0.00 0.00 0.00 40 1009.8
20260509235041 76 342 1.0 6.0 0.00 0.00 0.00 40 1009.8
20260509234602 77 38 1.0 5.0 0.00 0.00 0.00 39 1009.7
20260509234047 77 22 0.0 5.0 0.00 0.00 0.00 38 1009.7
20260509233541 78 0 1.0 8.0 0.00 0.00 0.00 40 1009.8
20260509233049 77 355 0.0 8.0 0.00 0.00 0.00 41 1009.5
20260509232543 78 27 0.0 9.0 0.00 0.00 0.00 38 1009.6
20260509232044 78 0 0.0 9.0 0.00 0.00 0.00 38 1009.6
20260509231552 78 41 1.0 6.0 0.00 0.00 0.00 38 1009.4
20260509231041 79 346 1.0 4.0 0.00 0.00 0.00 37 1009.3
20260509230544 80 0 0.0 7.0 0.00 0.00 0.00 39 1009.2
20260509225544 80 275 1.0 8.0 0.00 0.00 0.00 37 1009.1
20260509225043 79 327 0.0 4.0 0.00 0.00 0.00 38 1009.1
20260509224556 79 286 0.0 6.0 0.00 0.00 0.00 40 1009.0
20260509224043 79 0 0.0 8.0 0.00 0.00 0.00 37 1009.1
20260509223541 79 315 0.0 8.0 0.00 0.00 0.00 37 1009.1
20260509223054 79 0 1.0 8.0 0.00 0.00 0.00 37 1009.1
20260509222541 79 336 1.0 11.0 0.00 0.00 0.00 37 1009.1
20260509222041 79 278 2.0 11.0 0.00 0.00 0.00 36 1009.0
20260509221610 79 303 1.0 9.0 0.00 0.00 0.00 35 1008.9
20260509221040 79 282 1.0 8.0 0.00 0.00 0.00 36 1008.9
20260509220544 80 0 2.0 7.0 0.00 0.00 0.00 36 1008.9
20260509215541 80 0 0.0 6.0 0.00 0.01 0.00 38 1008.7
20260509215042 81 5 1.0 6.0 0.00 0.01 0.00 36 1008.7
20260509214551 81 336 1.0 8.0 0.00 0.01 0.00 35 1008.7
20260509214041 81 304 1.0 8.0 0.00 0.01 0.00 35 1008.7
20260509213541 82 308 1.0 10.0 0.00 0.01 0.00 33 1008.7
20260509213053 82 0 2.0 10.0 0.00 0.01 0.00 32 1008.7
20260509212544 82 256 2.0 11.0 0.00 0.01 0.00 32 1008.7
20260509212043 83 331 1.0 11.0 0.00 0.01 0.00 34 1008.5
20260509211554 84 282 3.0 11.0 0.00 0.01 0.00 32 1008.5
20260509211043 83 197 3.0 11.0 0.00 0.01 0.00 33 1008.5
20260509210541 83 284 2.0 13.0 0.00 0.01 0.00 32 1008.6
20260509210058 83 244 2.0 13.0 0.00 0.01 0.00 32 1008.7
20260509205541 83 360 2.0 13.0 0.00 0.01 0.00 32 1008.7
20260509205041 83 297 2.0 10.0 0.00 0.01 0.00 30 1008.7
20260509204549 84 236 2.0 13.0 0.00 0.01 0.00 30 1008.7
20260509204041 84 34 3.0 13.0 0.00 0.01 0.00 30 1008.6
20260509203541 85 0 3.0 10.0 0.00 0.01 0.00 30 1008.7
20260509203055 85 248 4.0 10.0 0.00 0.01 0.00 30 1008.7
20260509202541 85 286 3.0 11.0 0.00 0.01 0.00 31 1008.6
20260509202043 85 224 4.0 11.0 0.00 0.01 0.00 31 1008.6
20260509201554 86 267 3.0 9.0 0.00 0.01 0.00 31 1008.7
20260509201040 86 258 3.0 9.0 0.00 0.01 0.00 30 1008.7
20260509200541 86 281 3.0 9.0 0.00 0.01 0.00 31 1008.8
20260509200059 86 0 2.0 9.0 0.00 0.01 0.00 34 1008.8
20260509195540 86 315 3.0 11.0 0.00 0.01 0.00 31 1008.7
20260509195044 85 336 4.0 11.0 0.00 0.01 0.00 32 1008.9
20260509194552 84 336 3.0 13.0 0.00 0.01 0.00 31 1008.8
20260509194041 84 271 3.0 13.0 0.00 0.01 0.00 31 1008.9
20260509193544 83 213 3.0 14.0 0.00 0.01 0.00 30 1008.9
20260509193059 84 32 3.0 14.0 0.00 0.01 0.00 30 1009.0
20260509192541 85 283 3.0 19.0 0.00 0.01 0.00 29 1008.8
20260509192050 86 227 4.0 19.0 0.00 0.01 0.00 29 1008.9
20260509191610 85 229 4.0 11.0 0.00 0.01 0.00 32 1009.0
20260509191040 85 295 2.0 9.0 0.00 0.01 0.00 33 1009.1
20260509190543 83 258 1.0 10.0 0.00 0.01 0.00 34 1009.1
20260509190105 83 308 2.0 11.0 0.00 0.01 0.00 33 1009.0
20260509185544 83 5 3.0 11.0 0.00 0.01 0.00 32 1009.1
20260509185041 83 174 3.0 9.0 0.00 0.01 0.00 33 1009.1
20260509184547 82 321 1.0 9.0 0.00 0.01 0.00 34 1009.1
20260509184041 82 61 2.0 12.0 0.00 0.01 0.00 32 1009.3
20260509183541 83 236 3.0 13.0 0.00 0.01 0.00 33 1009.2
20260509183054 83 23 5.0 16.0 0.00 0.01 0.00 32 1009.2
20260509182544 84 185 3.0 16.0 0.00 0.01 0.00 33 1009.3
20260509182041 84 215 6.0 16.0 0.00 0.01 0.00 30 1009.5
20260509181555 84 215 4.0 16.0 0.00 0.01 0.00 32 1009.4
20260509181044 84 24 5.0 16.0 0.00 0.01 0.00 33 1009.5
20260509180542 84 264 4.0 13.0 0.00 0.01 0.00 35 1009.5
20260509180054 83 5 5.0 13.0 0.00 0.01 0.00 32 1009.6
20260509175541 83 32 3.0 13.0 0.00 0.01 0.00 34 1009.5
20260509175042 83 327 4.0 13.0 0.00 0.01 0.00 34 1009.5
20260509174548 83 306 3.0 14.0 0.00 0.01 0.00 34 1009.8
20260509174040 83 253 6.0 14.0 0.00 0.01 0.00 35 1009.8
20260509173541 83 281 1.0 11.0 0.00 0.01 0.00 38 1009.9
20260509173058 82 258 3.0 11.0 0.00 0.01 0.00 34 1009.8
20260509172544 82 194 4.0 11.0 0.00 0.01 0.00 36 1009.9
20260509172041 81 0 3.0 12.0 0.00 0.01 0.00 38 1010.0
20260509171604 81 244 4.0 12.0 0.00 0.01 0.00 36 1010.0
20260509171041 81 210 2.0 16.0 0.00 0.01 0.00 37 1010.1
20260509170541 81 331 1.0 16.0 0.00 0.01 0.00 38 1010.1
20260509170047 80 0 2.0 10.0 0.00 0.01 0.00 39 1010.2
20260509165541 80 306 2.0 10.0 0.00 0.01 0.00 38 1010.2
20260509165041 80 328 3.0 10.0 0.00 0.01 0.00 39 1010.2
20260509164554 80 192 2.0 9.0 0.00 0.01 0.00 41 1010.2
20260509164047 79 321 3.0 9.0 0.00 0.01 0.00 41 1010.2
20260509163544 78 322 2.0 9.0 0.00 0.01 0.00 41 1010.2
20260509163056 78 0 2.0 9.0 0.00 0.01 0.00 41 1010.0
20260509162546 78 331 1.0 8.0 0.00 0.01 0.00 42 1010.1
20260509162043 78 232 1.0 8.0 0.00 0.01 0.00 41 1009.9
20260509161547 77 338 1.0 10.0 0.00 0.01 0.00 42 1009.9
20260509161042 77 300 3.0 10.0 0.00 0.01 0.00 42 1010.0
20260509160543 77 224 1.0 10.0 0.00 0.01 0.00 41 1009.9
20260509160050 77 234 3.0 9.0 0.00 0.01 0.00 44 1009.8
20260509155542 76 180 2.0 10.0 0.00 0.01 0.00 45 1009.9
20260509155042 76 236 3.0 10.0 0.00 0.01 0.00 44 1010.1
20260509154548 76 290 3.0 10.0 0.00 0.01 0.00 43 1010.2
20260509154042 75 279 1.0 12.0 0.00 0.01 0.00 45 1010.2
20260509153542 75 280 3.0 12.0 0.00 0.01 0.00 45 1010.1
20260509153049 75 5 2.0 14.0 0.00 0.01 0.00 45 1010.0
20260509152543 74 285 3.0 14.0 0.00 0.01 0.00 46 1010.0
20260509152043 74 0 0.0 8.0 0.00 0.01 0.00 46 1010.2
20260509151558 74 349 1.0 15.0 0.00 0.01 0.00 48 1010.0
20260509151042 73 0 3.0 15.0 0.00 0.01 0.00 47 1010.0
20260509150543 73 260 3.0 14.0 0.00 0.01 0.00 46 1010.0
20260509150049 73 317 3.0 14.0 0.00 0.01 0.00 47 1010.0
20260509145543 72 229 1.0 10.0 0.00 0.01 0.00 49 1009.9
20260509145044 72 315 3.0 9.0 0.00 0.01 0.00 48 1009.9
20260509144551 72 284 1.0 9.0 0.00 0.01 0.00 51 1010.1
20260509144044 71 250 2.0 9.0 0.00 0.01 0.00 52 1010.1
20260509143544 70 207 2.0 9.0 0.00 0.01 0.00 52 1010.0
20260509143049 69 342 1.0 9.0 0.00 0.01 0.00 53 1010.2
20260509142543 68 240 2.0 8.0 0.00 0.01 0.00 54 1010.1
20260509142042 68 288 2.0 12.0 0.00 0.01 0.00 54 1010.1
20260509141552 67 320 2.0 12.0 0.00 0.01 0.00 55 1009.9
20260509141040 67 176 2.0 12.0 0.00 0.01 0.00 56 1010.0
20260509140544 66 292 0.0 8.0 0.00 0.01 0.00 57 1010.0
20260509140049 66 312 2.0 9.0 0.00 0.01 0.00 57 1010.0
20260509135542 65 310 2.0 9.0 0.00 0.01 0.00 57 1010.0
20260509135043 65 228 2.0 9.0 0.00 0.01 0.00 57 1010.0
20260509134601 64 197 1.0 9.0 0.00 0.01 0.00 59 1010.1
20260509134045 64 189 2.0 9.0 0.00 0.01 0.00 59 1010.0
20260509133544 63 313 2.0 8.0 0.00 0.01 0.00 60 1010.0
20260509133050 63 304 2.0 9.0 0.00 0.01 0.00 61 1010.0
20260509132542 62 0 1.0 9.0 0.00 0.01 0.00 63 1010.1
20260509132047 61 258 0.0 5.0 0.00 0.01 0.00 65 1010.1
20260509131609 61 312 1.0 5.0 0.00 0.01 0.00 65 1010.0
20260509131041 60 219 1.0 5.0 0.00 0.01 0.00 67 1010.0
20260509130540 59 241 1.0 5.0 0.00 0.01 0.00 68 1009.9
20260509130104 59 0 0.0 4.0 0.00 0.01 0.00 69 1009.9
20260509125540 58 0 0.0 4.0 0.00 0.01 0.00 69 1009.9
20260509125046 58 189 0.0 5.0 0.00 0.01 0.00 70 1009.9
20260509124551 57 0 1.0 6.0 0.00 0.01 0.00 71 1009.9
20260509124040 57 0 1.0 7.0 0.00 0.01 0.00 71 1009.8
20260509123543 56 213 1.0 7.0 0.00 0.01 0.00 73 1009.7
20260509123101 56 0 1.0 9.0 0.00 0.01 0.00 73 1009.8
20260509122540 56 293 1.0 9.0 0.00 0.01 0.00 74 1009.6
20260509122041 55 210 1.0 9.0 0.00 0.01 0.00 76 1009.5
20260509121552 54 0 0.0 5.0 0.00 0.01 0.00 77 1009.7
20260509121048 53 218 1.0 4.0 0.00 0.01 0.00 79 1009.4
20260509120542 52 0 1.0 4.0 0.00 0.01 0.00 83 1009.4
20260509120058 51 258 0.0 3.0 0.00 0.01 0.00 86 1009.3
20260509115541 50 0 0.0 3.0 0.00 0.01 0.00 86 1009.3
20260509115040 49 0 0.0 1.0 0.00 0.01 0.00 87 1009.3
20260509114605 49 0 0.0 0.0 0.00 0.01 0.00 87 1009.3
20260509114041 49 0 0.0 0.0 0.00 0.01 0.00 87 1009.4
20260509113541 49 0 0.0 1.0 0.00 0.01 0.00 87 1009.4
20260509113056 49 0 0.0 1.0 0.00 0.01 0.00 88 1009.3
20260509112541 48 0 0.0 1.0 0.00 0.01 0.00 89 1009.3
20260509112041 48 0 0.0 1.0 0.00 0.01 0.00 88 1009.3
20260509111552 48 0 0.0 1.0 0.00 0.01 0.00 88 1009.1
20260509111041 48 0 0.0 1.0 0.00 0.01 0.00 88 1009.2
20260509110540 48 0 0.0 1.0 0.00 0.01 0.00 88 1009.2
20260509110105 48 0 0.0 2.0 0.00 0.01 0.00 88 1009.2
20260509105541 48 0 0.0 2.0 0.00 0.01 0.00 88 1009.1
20260509105041 48 0 0.0 1.0 0.00 0.01 0.00 87 1009.2
20260509104556 49 0 0.0 1.0 0.00 0.01 0.00 87 1009.1
20260509104041 49 0 0.0 1.0 0.00 0.01 0.00 87 1009.2
20260509103541 49 0 0.0 0.0 0.00 0.01 0.00 87 1009.1
20260509103050 49 0 0.0 0.0 0.00 0.01 0.00 86 1009.0
20260509102541 49 0 0.0 0.0 0.00 0.01 0.00 86 1009.1
20260509102041 50 0 0.0 0.0 0.00 0.01 0.00 85 1009.1
20260509101552 50 0 0.0 0.0 0.00 0.01 0.00 85 1008.9
20260509101041 50 0 0.0 0.0 0.00 0.01 0.00 85 1009.0
20260509100541 50 0 0.0 0.0 0.00 0.01 0.00 84 1008.9
20260509100054 51 0 0.0 0.0 0.00 0.01 0.00 83 1009.0
20260509095541 51 0 0.0 0.0 0.00 0.01 0.00 83 1009.0
20260509095040 52 0 0.0 0.0 0.00 0.01 0.00 82 1008.9
20260509094602 52 0 0.0 0.0 0.00 0.01 0.00 81 1008.8
20260509094040 53 0 0.0 0.0 0.00 0.01 0.00 80 1008.8
20260509093541 54 0 0.0 0.0 0.00 0.01 0.00 79 1008.8
20260509093054 54 0 0.0 3.0 0.00 0.01 0.00 78 1008.9
20260509092543 55 0 0.0 3.0 0.00 0.01 0.00 77 1008.9
20260509092040 55 0 0.0 3.0 0.00 0.01 0.00 76 1008.9
20260509091549 55 272 0.0 3.0 0.00 0.01 0.00 76 1008.8
20260509091040 56 175 0.0 4.0 0.00 0.01 0.00 76 1008.8
20260509090541 56 250 0.0 4.0 0.00 0.01 0.00 76 1008.8
20260509090101 56 0 0.0 4.0 0.00 0.01 0.00 76 1008.8
20260509085540 56 236 1.0 4.0 0.00 0.01 0.00 76 1008.9
20260509085040 56 277 0.0 7.0 0.00 0.01 0.00 76 1008.9
20260509084559 56 209 1.0 7.0 0.00 0.01 0.00 76 1008.7
20260509084041 56 245 1.0 7.0 0.00 0.01 0.00 76 1008.9
20260509083543 57 244 1.0 8.0 0.00 0.01 0.00 76 1008.9
20260509083051 57 266 3.0 8.0 0.00 0.01 0.00 76 1008.8
20260509082541 57 211 2.0 6.0 0.00 0.01 0.00 77 1008.9
20260509082041 57 196 2.0 9.0 0.00 0.01 0.00 77 1008.8
20260509081547 57 216 1.0 9.0 0.00 0.01 0.00 78 1008.8
20260509081041 56 164 3.0 9.0 0.00 0.01 0.00 78 1008.8
20260509080540 56 249 2.0 5.0 0.00 0.01 0.00 79 1008.8
20260509080049 56 252 1.0 5.0 0.00 0.01 0.00 79 1008.8
20260509075540 56 186 1.0 5.0 0.00 0.01 0.00 79 1008.7
20260509075041 56 0 1.0 5.0 0.00 0.01 0.00 80 1008.7
20260509074551 56 207 1.0 5.0 0.00 0.01 0.00 81 1008.7
20260509074042 55 198 0.0 3.0 0.00 0.01 0.00 82 1008.7
20260509073541 55 0 0.0 3.0 0.00 0.01 0.00 82 1008.8
20260509073051 55 0 0.0 5.0 0.00 0.01 0.00 82 1008.8
20260509072544 55 211 1.0 6.0 0.00 0.01 0.00 82 1008.8
20260509072042 54 201 1.0 6.0 0.00 0.01 0.00 84 1009.0
20260509071600 54 222 0.0 4.0 0.00 0.01 0.00 85 1009.0
20260509071040 54 198 0.0 4.0 0.00 0.01 0.00 86 1009.0
20260509070540 53 0 0.0 4.0 0.00 0.01 0.00 87 1009.0
20260509070104 53 0 0.0 1.0 0.00 0.01 0.00 87 1009.1
20260509065542 53 0 0.0 0.0 0.00 0.01 0.00 86 1009.1
20260509065039 53 0 0.0 2.0 0.00 0.01 0.00 86 1009.1
20260509064555 53 0 0.0 2.0 0.00 0.01 0.00 86 1009.1
20260509064040 54 0 0.0 2.0 0.00 0.01 0.00 85 1009.3
20260509063542 54 0 0.0 2.0 0.00 0.01 0.00 86 1009.3
20260509063057 54 0 0.0 5.0 0.00 0.01 0.00 86 1009.2
20260509062540 54 0 0.0 5.0 0.00 0.01 0.00 87 1009.3
20260509062041 54 0 0.0 1.0 0.00 0.01 0.00 87 1009.4
20260509061555 54 0 0.0 1.0 0.00 0.01 0.00 87 1009.2
20260509061045 54 0 0.0 0.0 0.00 0.01 0.00 86 1009.3
20260509060543 54 0 0.0 0.0 0.00 0.01 0.00 86 1009.4
20260509060048 55 0 0.0 2.0 0.00 0.01 0.00 85 1009.4
20260509055543 55 0 0.0 2.0 0.00 0.01 0.00 84 1009.4
20260509055048 56 0 0.0 4.0 0.00 0.01 0.00 85 1009.4
20260509054612 56 219 0.0 4.0 0.00 0.01 0.00 86 1009.5
20260509054044 55 174 0.0 3.0 0.00 0.01 0.00 87 1009.4
20260509053545 55 196 0.0 2.0 0.00 0.01 0.00 88 1009.3
20260509053141 55 0 0.0 1.0 0.00 0.01 0.00 88 1009.4
20260509052548 54 0 0.0 0.0 0.00 0.01 0.00 89 1009.3
20260509052044 54 0 0.0 1.0 0.00 0.01 0.00 89 1009.4
20260509051555 55 0 0.0 1.0 0.00 0.01 0.00 88 1009.4
20260509051044 55 0 0.0 3.0 0.00 0.01 0.00 89 1009.4
20260509050543 55 0 0.0 3.0 0.00 0.01 0.00 90 1009.6
20260509050053 55 208 0.0 3.0 0.00 0.01 0.00 91 1009.6
20260509045543 55 200 1.0 3.0 0.00 0.01 0.01 91 1009.5
20260509045044 55 0 0.0 3.0 0.00 0.01 0.01 92 1009.5
20260509044550 54 198 0.0 3.0 0.00 0.01 0.01 92 1009.6
20260509044044 54 0 0.0 2.0 0.00 0.01 0.01 93 1009.6
20260509043545 54 0 0.0 2.0 0.00 0.01 0.01 93 1009.6
20260509043057 53 0 0.0 0.0 0.00 0.01 0.01 93 1009.5
20260509042542 53 0 0.0 0.0 0.00 0.01 0.01 93 1009.5
20260509042045 53 0 0.0 0.0 0.00 0.01 0.01 93 1009.5
20260509041554 53 0 0.0 0.0 0.00 0.01 0.01 93 1009.5
20260509041044 53 0 0.0 0.0 0.00 0.01 0.01 93 1009.6
20260509040544 53 0 0.0 0.0 0.00 0.01 0.01 93 1009.6
20260509040109 53 0 0.0 0.0 0.00 0.01 0.01 93 1009.5
20260509035544 53 0 0.0 0.0 0.00 0.01 0.01 93 1009.6
20260509035046 53 0 0.0 0.0 0.00 0.01 0.01 93 1009.6
20260509034609 53 0 0.0 0.0 0.00 0.01 0.01 92 1009.6
20260509034045 53 0 0.0 0.0 0.00 0.01 0.01 92 1009.7
20260509033545 53 0 0.0 0.0 0.00 0.01 0.01 92 1009.6
20260509033055 54 0 0.0 0.0 0.00 0.01 0.01 92 1009.7
20260509032545 54 0 0.0 0.0 0.00 0.01 0.01 92 1009.7
20260509032044 54 0 0.0 0.0 0.00 0.01 0.01 92 1009.6